FW7979 Weather Reports


Display with metric or nautical units.
time (UTC)temp
F
wind
direction
speed
MPH
gust
MPH
rain 1hr
in
rain 24hr
in
rain mn
in
humidity
%
barometer
mb
20220527185515 73 187 2.0 5.0 0.00 0.00 0.00 83 1012.6
20220527185016 72 242 1.0 7.0 0.00 0.00 0.00 83 1012.5
20220527184526 72 190 3.0 9.0 0.00 0.00 0.00 82 1012.6
20220527184017 73 188 2.0 11.0 0.00 0.00 0.00 82 1012.7
20220527183520 73 148 3.0 11.0 0.00 0.00 0.00 81 1012.7
20220527183024 73 253 3.0 6.0 0.00 0.00 0.00 82 1012.6
20220527182516 73 181 2.0 6.0 0.00 0.00 0.00 81 1012.8
20220527182019 73 0 1.0 6.0 0.00 0.00 0.00 82 1012.7
20220527181525 73 190 3.0 6.0 0.00 0.00 0.00 81 1012.8
20220527181016 73 189 0.0 8.0 0.00 0.00 0.00 82 1012.9
20220527180518 73 189 2.0 8.0 0.00 0.00 0.00 81 1013.0
20220527180025 74 152 2.0 6.0 0.00 0.00 0.00 81 1013.0
20220527175520 73 189 1.0 6.0 0.00 0.00 0.00 82 1013.0
20220527175018 73 192 2.0 6.0 0.00 0.00 0.00 82 1013.1
20220527174524 73 192 2.0 6.0 0.00 0.00 0.00 83 1013.1
20220527174016 73 191 2.0 6.0 0.00 0.00 0.00 83 1013.2
20220527173516 73 167 2.0 6.0 0.00 0.00 0.00 83 1013.2
20220527173023 73 196 1.0 6.0 0.00 0.00 0.00 83 1013.3
20220527172523 72 198 1.0 6.0 0.00 0.00 0.00 83 1013.5
20220527172019 72 199 2.0 6.0 0.00 0.00 0.00 83 1013.4
20220527171523 72 184 1.0 5.0 0.00 0.00 0.00 84 1013.4
20220527171017 72 169 1.0 5.0 0.00 0.00 0.00 84 1013.4
20220527170527 72 190 1.0 5.0 0.00 0.00 0.00 84 1013.5
20220527170024 73 160 1.0 7.0 0.00 0.00 0.00 84 1013.5
20220527165519 72 184 1.0 7.0 0.00 0.00 0.00 85 1013.6
20220527165018 72 176 3.0 6.0 0.00 0.00 0.00 85 1013.5
20220527164528 72 246 2.0 6.0 0.00 0.00 0.00 85 1013.6
20220527164018 71 188 3.0 6.0 0.00 0.00 0.00 86 1013.7
20220527163519 71 194 1.0 5.0 0.00 0.00 0.00 87 1013.6
20220527163022 71 191 1.0 6.0 0.00 0.00 0.00 88 1013.6
20220527162516 71 186 2.0 6.0 0.00 0.00 0.00 87 1013.7
20220527162019 70 179 0.0 4.0 0.00 0.00 0.00 90 1013.6
20220527161523 70 179 1.0 4.0 0.00 0.00 0.00 90 1013.8
20220527161018 69 178 0.0 5.0 0.00 0.00 0.00 92 1013.7
20220527160518 69 189 1.0 5.0 0.00 0.00 0.00 93 1013.9
20220527160024 68 175 1.0 4.0 0.00 0.00 0.00 93 1013.9
20220527155523 68 194 0.0 4.0 0.00 0.00 0.00 95 1014.0
20220527155018 67 0 0.0 4.0 0.00 0.00 0.00 96 1014.0
20220527154535 67 0 0.0 4.0 0.00 0.00 0.00 96 1014.0
20220527154018 67 0 0.0 5.0 0.00 0.00 0.00 96 1014.0
20220527153524 67 194 1.0 5.0 0.00 0.00 0.00 96 1014.0
20220527153027 67 189 0.0 2.0 0.00 0.00 0.00 97 1014.1
20220527152519 66 0 0.0 0.0 0.00 0.00 0.00 97 1014.3
20220527152019 66 0 0.0 0.0 0.00 0.00 0.00 97 1014.4
20220527151523 66 0 0.0 2.0 0.00 0.00 0.00 97 1014.4
20220527151019 66 0 0.0 2.0 0.00 0.00 0.00 97 1014.5
20220527150518 66 0 0.0 2.0 0.00 0.00 0.00 97 1014.7
20220527150024 66 0 0.0 2.0 0.00 0.00 0.00 97 1014.7
20220527145519 66 0 0.0 3.0 0.00 0.00 0.00 97 1014.8
20220527145018 66 188 0.0 3.0 0.00 0.00 0.00 97 1014.9
20220527144522 66 0 1.0 3.0 0.00 0.00 0.00 97 1014.9
20220527144017 66 188 1.0 3.0 0.00 0.00 0.00 97 1014.9
20220527143521 66 0 0.0 0.0 0.00 0.00 0.00 97 1015.0
20220527143021 65 0 0.0 0.0 0.00 0.00 0.00 97 1015.1
20220527142519 65 0 0.0 0.0 0.00 0.00 0.00 97 1015.1
20220527142019 65 0 0.0 3.0 0.00 0.00 0.00 97 1015.1
20220527141524 65 0 0.0 3.0 0.00 0.00 0.00 97 1015.0
20220527141023 65 188 0.0 2.0 0.00 0.00 0.00 97 1015.1
20220527140516 65 0 0.0 2.0 0.00 0.00 0.00 97 1015.0
20220527140021 65 0 1.0 2.0 0.00 0.00 0.00 97 1015.1
20220527135520 65 0 0.0 2.0 0.00 0.00 0.00 97 1015.0
20220527135018 65 0 0.0 3.0 0.00 0.00 0.00 97 1015.1
20220527134540 65 188 0.0 3.0 0.00 0.00 0.00 97 1015.3
20220527134028 65 186 0.0 4.0 0.00 0.00 0.00 97 1015.3
20220527133521 65 0 0.0 4.0 0.00 0.00 0.00 97 1015.3
20220527133023 65 0 0.0 4.0 0.00 0.00 0.00 97 1015.2
20220527132519 65 0 0.0 4.0 0.00 0.00 0.00 97 1015.3
20220527132020 65 0 0.0 2.0 0.00 0.00 0.00 97 1015.3
20220527131522 65 0 0.0 5.0 0.00 0.00 0.00 97 1015.3
20220527131024 64 186 1.0 5.0 0.00 0.00 0.00 97 1015.5
20220527130519 64 0 0.0 3.0 0.00 0.00 0.00 97 1015.4
20220527130022 65 0 0.0 3.0 0.00 0.00 0.00 97 1015.6
20220527125517 65 186 0.0 3.0 0.00 0.00 0.00 97 1015.6
20220527125019 65 0 0.0 0.0 0.00 0.00 0.00 97 1015.6
20220527124555 65 0 0.0 0.0 0.00 0.00 0.00 97 1015.8
20220527124019 64 0 0.0 0.0 0.00 0.00 0.00 97 1015.7
20220527123519 64 0 0.0 0.0 0.00 0.00 0.00 97 1015.8
20220527123027 64 0 0.0 0.0 0.00 0.00 0.00 97 1015.6
20220527122518 64 0 0.0 0.0 0.00 0.00 0.00 97 1015.7
20220527122015 64 0 0.0 0.0 0.00 0.00 0.00 97 1015.7
20220527121522 64 0 0.0 0.0 0.00 0.00 0.00 97 1015.7
20220527121016 64 0 0.0 0.0 0.00 0.00 0.00 97 1015.6
20220527120517 64 0 0.0 0.0 0.00 0.00 0.00 97 1015.6
20220527120027 64 0 0.0 0.0 0.00 0.00 0.00 97 1015.6
20220527115519 64 0 0.0 0.0 0.00 0.00 0.00 97 1015.6
20220527115019 64 0 0.0 0.0 0.00 0.00 0.00 97 1015.7
20220527114531 64 0 0.0 0.0 0.00 0.00 0.00 97 1015.8
20220527114022 64 0 0.0 0.0 0.00 0.00 0.00 97 1015.8
20220527113519 63 0 0.0 0.0 0.00 0.00 0.00 97 1015.8
20220527113023 63 0 0.0 0.0 0.00 0.00 0.00 97 1016.0
20220527112519 63 0 0.0 0.0 0.00 0.00 0.00 97 1015.9
20220527112020 63 0 0.0 0.0 0.00 0.00 0.00 97 1016.0
20220527111524 63 0 0.0 0.0 0.00 0.00 0.00 97 1016.0
20220527111016 63 0 0.0 0.0 0.00 0.00 0.00 97 1016.0
20220527110519 63 0 0.0 0.0 0.00 0.00 0.00 97 1016.2
20220527110022 63 0 0.0 0.0 0.00 0.00 0.00 97 1016.1
20220527105518 63 0 0.0 0.0 0.00 0.00 0.00 97 1016.1
20220527105016 63 0 0.0 0.0 0.00 0.00 0.00 97 1016.2
20220527104523 63 0 0.0 0.0 0.00 0.00 0.00 97 1016.2
20220527104019 63 0 0.0 0.0 0.00 0.00 0.00 97 1016.0
20220527103524 63 0 0.0 0.0 0.00 0.00 0.00 97 1016.0
20220527103021 63 0 0.0 0.0 0.00 0.00 0.00 97 1016.0
20220527102521 62 0 0.0 0.0 0.00 0.00 0.00 97 1016.1
20220527102019 62 0 0.0 0.0 0.00 0.00 0.00 97 1016.1
20220527101520 62 0 0.0 0.0 0.00 0.00 0.00 97 1016.0
20220527101028 62 0 0.0 0.0 0.00 0.00 0.00 97 1016.1
20220527100522 62 0 0.0 0.0 0.00 0.00 0.00 97 1016.0
20220527100025 62 0 0.0 0.0 0.00 0.00 0.00 96 1016.1
20220527095519 62 0 0.0 0.0 0.00 0.00 0.00 96 1016.1
20220527095021 62 0 0.0 0.0 0.00 0.00 0.00 96 1016.1
20220527094541 62 0 0.0 0.0 0.00 0.00 0.00 96 1016.1
20220527094019 62 0 0.0 0.0 0.00 0.00 0.00 96 1016.2
20220527093519 62 0 0.0 0.0 0.00 0.00 0.00 96 1016.2
20220527093022 62 0 0.0 0.0 0.00 0.00 0.00 96 1016.3
20220527092518 62 0 0.0 0.0 0.00 0.00 0.00 96 1016.3
20220527092021 62 0 0.0 0.0 0.00 0.00 0.00 96 1016.2
20220527091523 62 0 0.0 0.0 0.00 0.00 0.00 96 1016.2
20220527091021 62 0 0.0 0.0 0.00 0.00 0.00 96 1016.3
20220527090520 62 0 0.0 0.0 0.00 0.00 0.00 96 1016.2
20220527090027 62 0 0.0 0.0 0.00 0.00 0.00 96 1016.3
20220527085521 62 0 0.0 0.0 0.00 0.00 0.00 96 1016.5
20220527085018 62 0 0.0 0.0 0.00 0.00 0.00 96 1016.5
20220527084519 62 0 0.0 0.0 0.00 0.00 0.00 96 1016.5
20220527084019 62 0 0.0 0.0 0.00 0.00 0.00 96 1016.6
20220527083521 61 0 0.0 0.0 0.00 0.00 0.00 96 1016.6
20220527083041 61 0 0.0 0.0 0.00 0.00 0.00 96 1016.7
20220527082519 61 0 0.0 0.0 0.00 0.00 0.00 96 1016.8
20220527082021 61 0 0.0 0.0 0.00 0.00 0.00 95 1016.7
20220527081520 61 0 0.0 0.0 0.00 0.00 0.00 95 1016.7
20220527081018 61 0 0.0 0.0 0.00 0.00 0.00 95 1016.8
20220527080516 61 0 0.0 0.0 0.00 0.00 0.00 95 1016.8
20220527080023 61 0 0.0 0.0 0.00 0.00 0.00 95 1017.0
20220527075522 61 0 0.0 0.0 0.00 0.00 0.00 95 1017.1
20220527075016 61 0 0.0 0.0 0.00 0.00 0.00 95 1017.2
20220527074522 61 0 0.0 0.0 0.00 0.00 0.00 95 1017.2
20220527074019 61 0 0.0 0.0 0.00 0.00 0.00 94 1017.2
20220527073519 61 0 0.0 0.0 0.00 0.00 0.00 94 1017.2
20220527073031 61 0 0.0 0.0 0.00 0.00 0.00 94 1017.3
20220527072519 61 0 0.0 0.0 0.00 0.00 0.00 94 1017.4
20220527072019 61 0 0.0 0.0 0.00 0.00 0.00 94 1017.5
20220527071525 61 0 0.0 0.0 0.00 0.00 0.00 94 1017.5
20220527071020 61 0 0.0 0.0 0.00 0.00 0.00 94 1017.5
20220527070521 61 0 0.0 0.0 0.00 0.00 0.00 94 1017.5
20220527070024 61 0 0.0 0.0 0.00 0.00 0.00 94 1017.5
20220527065515 61 0 0.0 0.0 0.00 0.00 0.00 93 1017.6
20220527065019 61 0 0.0 0.0 0.00 0.00 0.00 93 1017.6
20220527064523 61 0 0.0 0.0 0.00 0.00 0.00 93 1017.8
20220527064020 61 0 0.0 0.0 0.00 0.00 0.00 93 1017.9
20220527063520 61 0 0.0 0.0 0.00 0.00 0.00 92 1017.9
20220527063023 61 0 0.0 0.0 0.00 0.00 0.00 92 1018.0
20220527062521 61 0 0.0 0.0 0.00 0.00 0.00 92 1018.0
20220527062020 61 0 0.0 0.0 0.00 0.00 0.00 92 1018.1
20220527061522 61 0 0.0 0.0 0.00 0.00 0.00 91 1018.3
20220527061019 61 0 0.0 0.0 0.00 0.00 0.00 91 1018.4
20220527060519 61 0 0.0 0.0 0.00 0.00 0.00 91 1018.3
20220527060024 61 0 0.0 0.0 0.00 0.00 0.00 90 1018.5
20220527055521 62 0 0.0 0.0 0.00 0.00 0.00 90 1018.5
20220527055023 62 0 0.0 0.0 0.00 0.00 0.00 90 1018.6
20220527054523 62 0 0.0 0.0 0.00 0.00 0.00 89 1018.5
20220527054016 62 0 0.0 0.0 0.00 0.00 0.00 89 1018.5
20220527053519 62 0 0.0 0.0 0.00 0.00 0.00 89 1018.6
20220527053023 62 0 0.0 0.0 0.00 0.00 0.00 89 1018.7
20220527052519 62 0 0.0 0.0 0.00 0.00 0.00 89 1018.9
20220527052018 62 0 0.0 0.0 0.00 0.00 0.00 89 1018.8
20220527051523 62 0 0.0 0.0 0.00 0.00 0.00 89 1019.0
20220527051019 62 0 0.0 0.0 0.00 0.00 0.00 89 1019.1
20220527050522 62 0 0.0 0.0 0.00 0.00 0.00 88 1019.2
20220527050022 62 0 0.0 0.0 0.00 0.00 0.00 88 1019.2
20220527045521 62 0 0.0 0.0 0.00 0.00 0.00 88 1019.3
20220527045019 62 0 0.0 0.0 0.00 0.00 0.00 88 1019.4
20220527044522 62 0 0.0 0.0 0.00 0.00 0.00 88 1019.3
20220527044019 62 0 0.0 0.0 0.00 0.00 0.00 88 1019.5
20220527043519 62 0 0.0 0.0 0.00 0.00 0.00 88 1019.5
20220527043018 62 0 0.0 0.0 0.00 0.00 0.00 88 1019.5
20220527042521 62 0 0.0 0.0 0.00 0.00 0.00 88 1019.6
20220527042021 62 0 0.0 0.0 0.00 0.00 0.00 88 1019.7
20220527041523 62 0 0.0 0.0 0.00 0.00 0.00 88 1019.8
20220527041019 62 0 0.0 0.0 0.00 0.00 0.00 87 1019.8
20220527040519 62 0 0.0 0.0 0.00 0.00 0.00 87 1020.0
20220527040024 62 0 0.0 0.0 0.00 0.00 0.00 87 1020.0
20220527035519 62 0 0.0 0.0 0.00 0.00 0.00 87 1019.9
20220527035019 62 0 0.0 0.0 0.00 0.00 0.00 87 1020.0
20220527034523 62 0 0.0 0.0 0.00 0.00 0.00 87 1019.9
20220527034019 62 0 0.0 0.0 0.00 0.00 0.00 87 1020.0
20220527033520 62 0 0.0 0.0 0.00 0.00 0.00 86 1020.0
20220527033035 62 0 0.0 0.0 0.00 0.00 0.00 86 1020.1
20220527032520 62 0 0.0 0.0 0.00 0.00 0.00 86 1020.1
20220527032021 62 0 0.0 0.0 0.00 0.00 0.00 86 1020.1
20220527031528 62 0 0.0 0.0 0.00 0.00 0.00 86 1020.1
20220527031019 62 0 0.0 0.0 0.00 0.00 0.00 86 1020.2
20220527030519 62 0 0.0 0.0 0.00 0.00 0.00 86 1020.3
20220527030027 62 0 0.0 0.0 0.00 0.00 0.00 86 1020.5
20220527025515 62 0 0.0 0.0 0.00 0.00 0.00 85 1020.6
20220527025021 62 0 0.0 2.0 0.00 0.00 0.00 85 1020.5
20220527024521 62 0 0.0 3.0 0.00 0.00 0.00 85 1020.5
20220527024019 62 0 0.0 3.0 0.00 0.00 0.00 85 1020.6
20220527023520 63 186 0.0 3.0 0.00 0.00 0.00 85 1020.8
20220527023026 63 186 1.0 3.0 0.00 0.00 0.00 85 1020.7
20220527022520 63 0 0.0 0.0 0.00 0.00 0.00 85 1020.9
20220527022016 63 0 0.0 0.0 0.00 0.00 0.00 84 1021.0
20220527021539 63 0 0.0 0.0 0.00 0.00 0.00 85 1021.1
20220527021020 63 0 0.0 1.0 0.00 0.00 0.00 84 1021.1
20220527020520 63 0 0.0 1.0 0.00 0.00 0.00 84 1021.2
20220527020023 63 0 0.0 0.0 0.00 0.00 0.00 84 1021.2
20220527015518 63 0 0.0 0.0 0.00 0.00 0.00 85 1021.3
20220527015016 63 0 0.0 0.0 0.00 0.00 0.00 85 1021.1
20220527014520 63 0 0.0 0.0 0.00 0.00 0.00 85 1021.2
20220527014016 62 0 0.0 0.0 0.00 0.00 0.00 85 1021.1
20220527013520 62 0 0.0 0.0 0.00 0.00 0.00 85 1021.3
20220527013030 62 0 0.0 0.0 0.00 0.00 0.00 85 1021.3
20220527012516 62 0 0.0 0.0 0.00 0.00 0.00 85 1021.2
20220527012016 62 0 0.0 0.0 0.00 0.00 0.00 85 1021.1
20220527011523 62 0 0.0 0.0 0.00 0.00 0.00 84 1021.0
20220527011017 62 0 0.0 0.0 0.00 0.00 0.00 84 1021.2
20220527010516 62 0 0.0 0.0 0.00 0.00 0.00 84 1021.0
20220527010023 62 0 0.0 0.0 0.00 0.00 0.00 84 1021.0
20220527005522 62 0 0.0 3.0 0.00 0.00 0.00 84 1020.9
20220527005021 62 0 0.0 3.0 0.00 0.00 0.00 84 1021.1
20220527004531 62 0 0.0 0.0 0.00 0.00 0.00 83 1021.1
20220527004019 62 0 0.0 0.0 0.00 0.00 0.00 83 1021.1
20220527003521 62 0 0.0 0.0 0.00 0.00 0.00 82 1021.2
20220527003025 62 0 0.0 1.0 0.00 0.00 0.00 82 1021.3
20220527002517 63 0 0.0 1.0 0.00 0.00 0.00 81 1021.3
20220527002020 63 0 0.0 2.0 0.00 0.00 0.00 81 1021.4
20220527001518 63 0 0.0 2.0 0.00 0.00 0.00 80 1021.4
20220527001019 63 0 0.0 1.0 0.00 0.00 0.00 80 1021.3
20220527000520 63 0 0.0 1.0 0.00 0.00 0.00 80 1021.4
20220527000020 64 0 0.0 2.0 0.00 0.00 0.00 79 1021.4
20220526235519 64 0 0.0 4.0 0.00 0.00 0.00 79 1021.4
20220526235016 64 0 1.0 4.0 0.00 0.00 0.00 78 1021.3
20220526234517 64 0 1.0 5.0 0.00 0.00 0.00 78 1021.3
20220526234019 64 203 2.0 5.0 0.00 0.00 0.00 77 1021.3
20220526233518 64 224 1.0 6.0 0.00 0.00 0.00 76 1021.2
20220526233022 64 224 2.0 6.0 0.00 0.00 0.00 76 1021.2
20220526232516 64 182 1.0 6.0 0.00 0.00 0.00 75 1021.2
20220526232016 64 157 0.0 5.0 0.00 0.00 0.00 75 1021.3
20220526231524 64 187 2.0 8.0 0.00 0.00 0.00 75 1021.3
20220526231016 64 184 3.0 8.0 0.00 0.00 0.00 74 1021.5
20220526230516 65 190 1.0 4.0 0.00 0.00 0.00 74 1021.3
20220526230026 65 190 0.0 4.0 0.00 0.00 0.00 74 1021.5
20220526225521 65 190 1.0 5.0 0.00 0.00 0.00 74 1021.6
20220526225020 65 190 2.0 6.0 0.00 0.00 0.00 74 1021.4
20220526224526 65 189 1.0 6.0 0.00 0.00 0.00 74 1021.5
20220526224018 65 176 0.0 5.0 0.00 0.00 0.00 74 1021.6
20220526223519 65 178 3.0 7.0 0.00 0.00 0.00 74 1021.7
20220526223023 65 174 2.0 7.0 0.00 0.00 0.00 74 1021.8
20220526222517 65 186 1.0 5.0 0.00 0.00 0.00 74 1021.8
20220526222017 65 184 2.0 5.0 0.00 0.00 0.00 73 1021.9
20220526221523 65 184 1.0 6.0 0.00 0.00 0.00 73 1022.0
20220526221019 65 184 1.0 6.0 0.00 0.00 0.00 72 1021.9
20220526220516 65 0 1.0 6.0 0.00 0.00 0.00 72 1022.0
20220526220027 65 180 2.0 6.0 0.00 0.00 0.00 72 1022.1
20220526215519 65 0 0.0 5.0 0.00 0.00 0.00 72 1022.1
20220526215021 65 189 1.0 6.0 0.00 0.00 0.00 71 1022.2
20220526214523 65 190 1.0 7.0 0.00 0.00 0.00 71 1022.3
20220526214018 65 175 2.0 7.0 0.00 0.00 0.00 70 1022.3
20220526213522 66 175 2.0 6.0 0.00 0.00 0.00 70 1022.3
20220526213020 66 188 1.0 6.0 0.00 0.00 0.00 70 1022.4
20220526212519 66 167 1.0 11.0 0.00 0.00 0.00 70 1022.5
20220526212018 66 184 3.0 11.0 0.00 0.00 0.00 69 1022.5
20220526211523 66 0 1.0 5.0 0.00 0.00 0.00 70 1022.3
20220526211019 66 177 2.0 5.0 0.00 0.00 0.00 70 1022.3
20220526210515 65 201 1.0 7.0 0.00 0.00 0.00 70 1022.4
20220526210023 66 198 2.0 7.0 0.00 0.00 0.00 70 1022.6
20220526205518 66 195 2.0 9.0 0.00 0.00 0.00 69 1022.5
20220526205018 66 190 3.0 9.0 0.00 0.00 0.00 69 1022.6
20220526204525 65 164 2.0 6.0 0.00 0.00 0.00 69 1022.7
20220526204022 66 186 2.0 6.0 0.00 0.00 0.00 68 1022.8
20220526203519 66 165 1.0 8.0 0.00 0.00 0.00 68 1022.8
20220526203018 66 191 1.0 8.0 0.00 0.00 0.00 67 1022.8
20220526202519 66 181 3.0 9.0 0.00 0.00 0.00 66 1022.9
20220526202019 67 193 2.0 9.0 0.00 0.00 0.00 66 1022.7
20220526201531 66 152 4.0 9.0 0.00 0.00 0.00 66 1022.8
20220526201019 66 190 3.0 8.0 0.00 0.00 0.00 65 1022.9
20220526200519 66 218 2.0 6.0 0.00 0.00 0.00 66 1022.8
20220526200024 66 161 2.0 5.0 0.00 0.00 0.00 66 1023.0
20220526195517 66 182 2.0 5.0 0.00 0.00 0.00 67 1023.0
20220526195017 65 172 2.0 8.0 0.00 0.00 0.00 67 1023.0
20220526194531 66 189 2.0 9.0 0.00 0.00 0.00 66 1023.1
20220526194016 66 178 2.0 9.0 0.00 0.00 0.00 66 1023.1
20220526193518 66 183 4.0 8.0 0.00 0.00 0.00 66 1023.4
20220526193022 66 168 2.0 7.0 0.00 0.00 0.00 66 1023.4
20220526192519 66 175 3.0 9.0 0.00 0.00 0.00 65 1023.5
20220526192019 66 170 4.0 9.0 0.00 0.00 0.00 66 1023.6
20220526191523 66 180 2.0 9.0 0.00 0.00 0.00 68 1023.7
20220526191021 65 183 3.0 9.0 0.00 0.00 0.00 66 1023.7
20220526190519 65 170 2.0 11.0 0.00 0.00 0.00 67 1023.8
20220526190023 65 190 3.0 11.0 0.00 0.00 0.00 66 1023.8